• In Hungary
  • List of Countries
  • For 7 days
  • Water Temperature
  • Satellite Maps
  • Weather Map
  • News
  • Weather Widgets
  • user-avatar
    Login

    Hourly Weather Bangalol

    Today, 17 August, Thursday

    Time Temperature Precipitation Wind Pressure Humidity
    00:00 +24°C° 0 mm 3 mps 696 mmHg 87%
    01:00 +24°C° 0 mm 3 mps 696 mmHg 88%
    02:00 +22°C° 0 mm 3 mps 696 mmHg 90%
    03:00 +22°C° 0 mm 3 mps 695 mmHg 91%
    04:00 +22°C° 0 mm 3 mps 695 mmHg 91%
    05:00 +23°C° 0 mm 2 mps 695 mmHg 91%
    06:00 +23°C° 0 mm 2 mps 695 mmHg 87%
    07:00 +24°C° 0 mm 3 mps 696 mmHg 83%
    08:00 +25°C° 0 mm 3 mps 696 mmHg 79%
    09:00 +27°C° 0 mm 4 mps 696 mmHg 73%
    10:00 +28°C° 0 mm 4 mps 696 mmHg 66%
    11:00 +30°C° 0 mm 5 mps 696 mmHg 61%
    12:00 +30°C° 0.1 mm 4 mps 696 mmHg 59%
    13:00 +32°C° 0.1 mm 4 mps 695 mmHg 57%
    14:00 +32°C° 0.1 mm 4 mps 695 mmHg 55%
    15:00 +30°C° 1.5 mm 4 mps 694 mmHg 59%
    16:00 +29°C° 1.5 mm 4 mps 694 mmHg 64%
    17:00 +29°C° 1.5 mm 4 mps 694 mmHg 68%
    18:00 +28°C° 1.9 mm 4 mps 694 mmHg 72%
    19:00 +27°C° 1.9 mm 4 mps 695 mmHg 76%
    20:00 +26°C° 1.9 mm 4 mps 695 mmHg 80%
    21:00 +25°C° 0.9 mm 4 mps 695 mmHg 81%
    22:00 +25°C° 0.9 mm 4 mps 695 mmHg 83%
    23:00 +25°C° 0.9 mm 4 mps 695 mmHg 84%

    Tomorrow, 18 August, Friday

    Time Temperature Precipitation Wind Pressure Humidity
    00:00 +23°C° 0.6 mm 4 mps 695 mmHg 86%
    01:00 +23°C° 0.6 mm 4 mps 695 mmHg 87%
    02:00 +23°C° 0.6 mm 4 mps 694 mmHg 88%
    03:00 +23°C° 0.1 mm 4 mps 694 mmHg 89%
    04:00 +22°C° 0.1 mm 3 mps 694 mmHg 89%
    05:00 +22°C° 0.1 mm 3 mps 694 mmHg 90%
    06:00 +24°C° 0.1 mm 3 mps 694 mmHg 88%
    07:00 +23°C° 0.1 mm 4 mps 695 mmHg 87%
    08:00 +23°C° 0.1 mm 4 mps 696 mmHg 85%
    09:00 +25°C° 0.1 mm 4 mps 696 mmHg 80%
    10:00 +26°C° 0.1 mm 4 mps 696 mmHg 75%
    11:00 +27°C° 0.1 mm 4 mps 696 mmHg 71%
    12:00 +28°C° 0.7 mm 5 mps 695 mmHg 68%
    13:00 +29°C° 0.7 mm 5 mps 695 mmHg 64%
    14:00 +30°C° 0.7 mm 6 mps 694 mmHg 61%
    15:00 +29°C° 0.8 mm 5 mps 694 mmHg 64%
    16:00 +28°C° 0.8 mm 5 mps 694 mmHg 67%
    17:00 +27°C° 0.8 mm 5 mps 694 mmHg 70%
    18:00 +27°C° 0.8 mm 5 mps 695 mmHg 74%
    19:00 +26°C° 0.8 mm 5 mps 695 mmHg 78%
    20:00 +25°C° 0.8 mm 5 mps 696 mmHg 82%
    21:00 +23°C° 0.1 mm 5 mps 696 mmHg 83%
    22:00 +23°C° 0.1 mm 5 mps 696 mmHg 84%
    23:00 +23°C° 0.1 mm 5 mps 696 mmHg 85%

    Day after tomorrow, 19 August, Saturday

    Time Temperature Precipitation Wind Pressure Humidity
    00:00 +23°C° 0 mm 4 mps 695 mmHg 86%
    01:00 +22°C° 0 mm 4 mps 695 mmHg 87%
    02:00 +22°C° 0 mm 4 mps 694 mmHg 88%
    03:00 +22°C° 0 mm 4 mps 694 mmHg 88%
    04:00 +22°C° 0 mm 4 mps 694 mmHg 88%
    05:00 +22°C° 0 mm 4 mps 695 mmHg 88%
    06:00 +23°C° 0 mm 4 mps 695 mmHg 86%
    07:00 +23°C° 0 mm 5 mps 696 mmHg 83%
    08:00 +25°C° 0 mm 5 mps 696 mmHg 81%
    09:00 +26°C° 0.1 mm 5 mps 696 mmHg 77%
    10:00 +27°C° 0.1 mm 5 mps 696 mmHg 73%
    11:00 +28°C° 0.1 mm 6 mps 696 mmHg 68%
    12:00 +28°C° 0.7 mm 6 mps 696 mmHg 66%
    13:00 +29°C° 0.7 mm 6 mps 695 mmHg 64%
    14:00 +29°C° 0.7 mm 6 mps 695 mmHg 62%
    15:00 +29°C° 1.1 mm 6 mps 695 mmHg 64%
    16:00 +28°C° 1.1 mm 6 mps 695 mmHg 67%
    17:00 +28°C° 1.1 mm 6 mps 695 mmHg 69%
    18:00 +27°C° 0.1 mm 6 mps 695 mmHg 73%
    19:00 +26°C° 0.1 mm 5 mps 696 mmHg 77%
    20:00 +25°C° 0.1 mm 5 mps 696 mmHg 80%
    21:00 +25°C° 0 mm 5 mps 696 mmHg 82%
    22:00 +23°C° 0 mm 5 mps 696 mmHg 84%
    23:00 +23°C° 0 mm 4 mps 696 mmHg 86%

    20 August, Sunday

    Time Temperature Precipitation Wind Pressure Humidity
    00:00 +22°C° 0 mm 4 mps 696 mmHg 87%
    01:00 +22°C° 0 mm 4 mps 695 mmHg 87%
    02:00 +22°C° 0 mm 4 mps 695 mmHg 88%
    03:00 +22°C° 0 mm 4 mps 695 mmHg 89%
    04:00 +21°C° 0 mm 4 mps 695 mmHg 89%
    05:00 +21°C° 0 mm 4 mps 695 mmHg 89%
    06:00 +22°C° 0 mm 4 mps 695 mmHg 85%
    07:00 +23°C° 0 mm 5 mps 696 mmHg 82%
    08:00 +25°C° 0 mm 5 mps 696 mmHg 78%
    09:00 +26°C° 0 mm 5 mps 696 mmHg 72%
    10:00 +28°C° 0 mm 6 mps 696 mmHg 67%
    11:00 +29°C° 0 mm 6 mps 696 mmHg 61%
    12:00 +30°C° 0.2 mm 6 mps 696 mmHg 58%
    13:00 +32°C° 0.2 mm 6 mps 695 mmHg 56%
    14:00 +32°C° 0.2 mm 6 mps 694 mmHg 53%
    15:00 +32°C° 0.5 mm 6 mps 694 mmHg 57%
    16:00 +30°C° 0.5 mm 6 mps 694 mmHg 60%
    17:00 +29°C° 0.5 mm 6 mps 694 mmHg 63%
    18:00 +28°C° 0.3 mm 6 mps 695 mmHg 68%
    19:00 +26°C° 0.3 mm 5 mps 695 mmHg 73%
    20:00 +25°C° 0.3 mm 5 mps 696 mmHg 78%
    21:00 +25°C° 0 mm 4 mps 696 mmHg 80%
    22:00 +23°C° 0 mm 4 mps 696 mmHg 82%
    23:00 +23°C° 0 mm 4 mps 696 mmHg 84%

    21 August, Monday

    Time Temperature Precipitation Wind Pressure Humidity
    00:00 +23°C° 0 mm 4 mps 695 mmHg 85%
    01:00 +22°C° 0 mm 4 mps 695 mmHg 86%
    02:00 +22°C° 0 mm 4 mps 694 mmHg 88%
    03:00 +22°C° 0 mm 4 mps 694 mmHg 88%
    04:00 +22°C° 0 mm 3 mps 694 mmHg 89%
    05:00 +22°C° 0 mm 3 mps 694 mmHg 89%
    06:00 +23°C° 0 mm 4 mps 695 mmHg 85%
    07:00 +23°C° 0 mm 5 mps 695 mmHg 81%
    08:00 +25°C° 0 mm 5 mps 696 mmHg 78%
    09:00 +27°C° 0 mm 6 mps 696 mmHg 72%
    10:00 +28°C° 0 mm 6 mps 695 mmHg 67%
    11:00 +30°C° 0 mm 6 mps 695 mmHg 61%
    12:00 +30°C° 0 mm 6 mps 695 mmHg 60%
    13:00 +30°C° 0 mm 6 mps 694 mmHg 58%
    14:00 +32°C° 0 mm 6 mps 693 mmHg 57%
    15:00 +30°C° 1.2 mm 5 mps 693 mmHg 60%
    16:00 +29°C° 1.2 mm 5 mps 693 mmHg 63%
    17:00 +29°C° 1.2 mm 5 mps 693 mmHg 66%
    18:00 +28°C° 1.2 mm 4 mps 694 mmHg 71%
    19:00 +27°C° 1.2 mm 4 mps 694 mmHg 76%
    20:00 +26°C° 1.2 mm 4 mps 695 mmHg 80%
    21:00 +25°C° 0 mm 4 mps 695 mmHg 82%
    22:00 +25°C° 0 mm 4 mps 695 mmHg 83%
    23:00 +23°C° 0 mm 4 mps 695 mmHg 84%

    22 August, Tuesday

    Time Temperature Precipitation Wind Pressure Humidity
    00:00 +23°C° 0 mm 4 mps 694 mmHg 86%
    01:00 +23°C° 0 mm 4 mps 694 mmHg 87%
    02:00 +22°C° 0 mm 4 mps 693 mmHg 88%
    03:00 +22°C° 0 mm 4 mps 693 mmHg 88%
    04:00 +22°C° 0 mm 3 mps 693 mmHg 89%
    05:00 +22°C° 0 mm 3 mps 693 mmHg 89%
    06:00 +23°C° 0 mm 4 mps 694 mmHg 86%
    07:00 +25°C° 0 mm 4 mps 695 mmHg 82%
    08:00 +25°C° 0 mm 4 mps 695 mmHg 79%
    09:00 +27°C° 0 mm 4 mps 695 mmHg 74%
    10:00 +28°C° 0 mm 5 mps 695 mmHg 69%
    11:00 +30°C° 0 mm 5 mps 695 mmHg 63%
    12:00 +30°C° 0.1 mm 5 mps 694 mmHg 61%
    13:00 +32°C° 0.1 mm 5 mps 694 mmHg 58%
    14:00 +32°C° 0.1 mm 5 mps 693 mmHg 56%
    15:00 +30°C° 1.4 mm 5 mps 693 mmHg 60%
    16:00 +30°C° 1.4 mm 5 mps 693 mmHg 64%
    17:00 +29°C° 1.4 mm 5 mps 693 mmHg 68%
    18:00 +28°C° 1.2 mm 5 mps 694 mmHg 72%
    19:00 +27°C° 1.2 mm 4 mps 694 mmHg 77%
    20:00 +26°C° 1.2 mm 4 mps 695 mmHg 81%
    21:00 +25°C° 0.1 mm 4 mps 695 mmHg 83%
    22:00 +25°C° 0.1 mm 4 mps 695 mmHg 84%
    23:00 +25°C° 0.1 mm 4 mps 695 mmHg 85%
    Show more